Location: Sebastopol
(38.4021°N, 122.8239°W)
Time: 14:06:00
(UTC+00:00)

Cosmos 1606 Rocket - Pass Details

Date: 29 October 2020
Orbit: 603 x 631 km, 82.5° (Epoch: 30 November)

Event Time Altitude Azimuth Distance (km) Brightness Sun altitude
Rises 13:13:29 0° 344° (NNW) 2,931 6.8 -16.5°
Reaches altitude 10° 13:15:49 10° 337° (NNW) 2,019 5.9 -16.1°
Maximum altitude 13:20:00 40° 268° (W) 932 4.0 -15.3°
Drops below altitude 10° 13:24:09 10° 199° (SSW) 2,002 6.0 -14.4°
Sets 13:26:28 0° 192° (SSW) 2,903 7.0 -14.0°
